COSMOS 886 DEB

Satellite information

Favourite Embed

Satellite Type and Status

DEBRISIN ORBIT

Key statistics

Satellite COSMOS 886 DEB at a glance.

Uptime

17666

Days in orbit

Revolutions

≈ 12.4

Per day

Orbit

MEO

Medium Earth Orbit

Inclination

65.8

Latest

Satellite identification and parameters

Extended collection of information and parameters for COSMOS 886 DEB.

Object identification

Identified? True

Debris? True

Object name: COSMOS 886 DEB

International designator: 1976-126AW

Object number (NORAD): 9956

Object ID (CCSDS): 9956

Country: COMMONWEALTH OF INDEPENDENT STATES (CIS)

Current information (Y/N): Y

RCS size: SMALL

Orbital parameters

Period: 116.429 minutes

Inclination: 65.7952 deg

SMA: 7898.322 km

Apoapsis: 2243.987 km

Periapsis: 796.388 km

RAAN: 269.7778 deg

Eccentricy: 0.0916397

Argument of periapsis: 97.0042 deg

Mean anomaly: 273.5932 deg

Mean motion: 12.36802831 rev/day

Mean motion (dot): 0.00000039 rev/day2

B* drag term: 0.00016985 1/REarth

Two-line elements (TLE)

Creation date: May 10, 2025, 2:32 a.m.

Reference frame: TEME

Reference center: EARTH

Epoch: May 9, 2025, 6:07 p.m. UTC

TLE line 0: 0 COSMOS 886 DEB

TLE line 1: 1 09956U 76126AW 25129.75547326 .00000039 00000-0 16985-3 0 9993

TLE line 2: 2 09956 65.7952 269.7778 0916397 97.0042 273.5932 12.36802831481275

Live tracking on map

Real-time ground track for satellite COSMOS 886 DEB.

In-orbit conjunctions

A list of the most updated potential collisions computed for object COSMOS 886 DEB.

Target Orbit TCA Probability of collision Miss distance Type
COSMOS 873 LEO 2024-11-13 05:34:24 0.0001110944 541.0 (m) PAYLOAD

Associated space launch

Second generation ASAT satellite

COSMOS 886 DEB was lifted into orbit during the mission ‘Tsiklon-2 | IS-A 4’, on board a Tsiklon-2 space rocket.

The launch took place on Dec. 27, 1976, 12:05 p.m. from 90.

For more information about the launch, click the button.

Launch to space Tsiklon-2 | IS-A 4
Tsiklon-2 | IS-A 4

Agency: N/A

Status: Launch Successful

Launch date: Dec. 27, 1976, 12:05 p.m. UTC

Rocket: Tsiklon-2

Launch pad: 90

Location: Baikonur Cosmodrome, Republic of Kazakhstan

...

Latest news about this satellite

There are no fresh news available about this satellite. Check back as we update our databases every day.


Newsletter sign-up

Weekly statistics, charts and insights to help you stay on top of the space industry.